FW3731 Weather Reports


Display with metric or nautical units.
time (UTC)temp
F
wind
direction
speed
MPH
gust
MPH
rain 1hr
in
rain 24hr
in
rain mn
in
humidity
%
barometer
mb
20260510174521 67 37 5.0 13.0 0.00 0.00 0.00 42 1020.3
20260510173021 67 8 5.0 13.0 0.00 0.00 0.00 42 1020.2
20260510171521 67 7 2.0 13.0 0.00 0.00 0.00 44 1020.2
20260510170020 66 63 7.0 15.0 0.00 0.00 0.00 40 1020.1
20260510164523 66 13 6.0 16.0 0.00 0.00 0.00 42 1020.0
20260510163012 65 347 4.0 14.0 0.00 0.00 0.00 46 1020.1
20260510161510 65 360 4.0 13.0 0.00 0.00 0.00 46 1020.3
20260510160009 65 356 8.0 15.0 0.00 0.00 0.00 46 1020.2
20260510154506 65 20 3.0 12.0 0.00 0.00 0.00 51 1020.1
20260510153004 64 319 4.0 14.0 0.00 0.00 0.00 50 1020.1
20260510151502 64 47 4.0 11.0 0.00 0.00 0.00 49 1020.2
20260510150002 63 18 1.0 10.0 0.00 0.00 0.00 55 1020.3
20260510144501 62 21 4.0 13.0 0.00 0.00 0.00 53 1020.3
20260510143102 62 347 3.0 8.0 0.00 0.00 0.00 56 1020.1
20260510141557 61 20 3.0 10.0 0.00 0.00 0.00 57 1019.8
20260510140057 61 350 2.0 11.0 0.00 0.00 0.00 57 1019.8
20260510134557 61 20 2.0 10.0 0.00 0.00 0.00 58 1019.5
20260510133050 61 326 4.0 14.0 0.00 0.00 0.00 56 1019.1
20260510131546 61 337 8.0 16.0 0.00 0.00 0.00 56 1018.7
20260510130045 61 3 5.0 10.0 0.00 0.00 0.00 57 1018.3
20260510124547 61 32 1.0 12.0 0.00 0.00 0.00 60 1018.3
20260510123040 60 13 4.0 14.0 0.00 0.00 0.00 61 1018.2
20260510121538 60 34 4.0 10.0 0.00 0.00 0.00 64 1018.1
20260510120035 60 357 3.0 8.0 0.00 0.00 0.00 65 1017.7
20260510114534 60 326 2.0 8.0 0.00 0.00 0.00 65 1017.7
20260510113032 60 11 5.0 10.0 0.00 0.00 0.00 66 1017.6
20260510111528 60 346 3.0 13.0 0.00 0.00 0.00 68 1017.3
20260510110026 60 11 4.0 10.0 0.00 0.00 0.00 70 1017.1
20260510104522 61 18 3.0 11.0 0.00 0.01 0.00 75 1016.6
20260510103019 61 37 1.0 10.0 0.00 0.01 0.00 76 1016.6
20260510101517 62 301 1.0 7.0 0.00 0.01 0.00 75 1016.5
20260510100014 62 333 0.0 3.0 0.00 0.01 0.00 77 1016.1
20260510094529 62 325 0.0 3.0 0.00 0.01 0.00 75 1015.6
20260510093010 63 351 1.0 6.0 0.00 0.01 0.00 74 1015.4
20260510091507 63 3 0.0 2.0 0.00 0.01 0.00 76 1014.8
20260510090006 63 32 0.0 3.0 0.00 0.01 0.00 75 1014.8
20260510084512 64 1 2.0 6.0 0.00 0.01 0.00 74 1014.7
20260510083107 64 357 1.0 7.0 0.00 0.01 0.00 74 1014.6
20260510081559 64 349 2.0 7.0 0.00 0.01 0.00 74 1014.5
20260510080100 64 352 2.0 6.0 0.00 0.01 0.00 74 1014.3
20260510074554 64 359 2.0 7.0 0.00 0.01 0.00 73 1013.9
20260510073056 64 343 2.0 7.0 0.00 0.01 0.00 73 1013.8
20260510071552 64 341 1.0 7.0 0.00 0.01 0.00 74 1013.6
20260510070050 64 20 3.0 11.0 0.00 0.01 0.00 75 1013.8
20260510064558 64 351 3.0 9.0 0.00 0.01 0.00 76 1013.8
20260510063047 65 342 3.0 12.0 0.00 0.01 0.00 76 1013.8
20260510061547 64 30 5.0 14.0 0.00 0.01 0.00 76 1013.7
20260510060044 63 338 2.0 8.0 0.00 0.01 0.00 79 1013.7
20260510054541 62 232 0.0 0.0 0.00 0.01 0.00 85 1013.7
20260510053037 62 232 0.0 0.0 0.00 0.01 0.00 85 1013.4
20260510051536 62 232 0.0 0.0 0.00 0.01 0.00 83 1013.0
20260510050030 62 230 0.0 0.0 0.00 0.01 0.00 82 1012.9
20260510044528 63 234 0.0 0.0 0.00 0.01 0.01 79 1012.6
20260510043029 64 234 0.0 0.0 0.00 0.01 0.01 78 1012.6
20260510041525 65 205 0.0 1.0 0.00 0.01 0.01 76 1012.2
20260510040023 66 262 0.0 0.0 0.00 0.01 0.01 72 1012.1
20260510034524 68 283 0.0 0.0 0.00 0.01 0.01 69 1012.0
20260510033022 70 316 0.0 1.0 0.00 0.01 0.01 62 1012.0
20260510031521 71 315 0.0 0.0 0.00 0.01 0.01 59 1011.8
20260510030021 71 3 1.0 7.0 0.00 0.01 0.01 61 1011.8
20260510024518 68 347 1.0 9.0 0.00 0.06 0.01 68 1011.3
20260510023015 64 338 1.0 5.0 0.00 0.06 0.01 80 1010.7
20260510021515 65 240 0.0 0.0 0.00 0.06 0.01 81 1009.9
20260510020014 66 239 0.0 0.0 0.00 0.06 0.01 78 1009.3
20260510014513 67 239 0.0 1.0 0.00 0.23 0.01 78 1009.1
20260510013012 68 232 0.0 1.0 0.00 0.23 0.01 78 1008.9
20260510011512 69 209 0.0 1.0 0.00 0.23 0.01 75 1008.8
20260510010011 71 218 0.0 2.0 0.00 0.23 0.01 72 1008.7
20260510004511 73 217 0.0 1.0 0.00 0.46 0.01 67 1008.6
20260510003021 75 226 0.0 1.0 0.00 0.46 0.01 60 1008.6
20260510001510 78 226 0.0 1.0 0.00 0.46 0.01 57 1008.5
20260510000009 79 226 0.0 0.0 0.00 0.46 0.01 50 1008.5
20260509234514 81 226 0.0 1.0 0.00 0.46 0.01 46 1008.5
20260509233007 82 226 0.0 2.0 0.00 0.46 0.01 43 1008.4
20260509231512 83 233 0.0 3.0 0.00 0.46 0.01 43 1008.5
20260509230007 84 243 0.0 4.0 0.00 0.46 0.01 42 1008.5
20260509224506 84 233 1.0 5.0 0.00 0.51 0.01 41 1008.4
20260509223007 84 233 0.0 3.0 0.00 0.51 0.01 38 1008.4
20260509221505 85 264 0.0 5.0 0.00 0.51 0.01 38 1008.3
20260509220013 85 155 2.0 7.0 0.00 0.51 0.01 37 1008.3
20260509214504 85 309 0.0 2.0 0.00 0.55 0.01 39 1008.4
20260509213002 85 224 0.0 3.0 0.00 0.55 0.01 41 1008.5
20260509211600 85 186 0.0 8.0 0.00 0.55 0.01 39 1008.6
20260509210106 85 159 1.0 6.0 0.00 0.55 0.01 41 1008.9
20260509204556 85 225 0.0 4.0 0.00 0.55 0.01 42 1009.1
20260509203054 85 244 0.0 2.0 0.00 0.55 0.01 41 1009.3
20260509201551 84 70 0.0 4.0 0.00 0.55 0.01 42 1009.3
20260509200050 84 335 0.0 6.0 0.00 0.55 0.01 41 1009.5
20260509194547 83 180 0.0 7.0 0.00 0.55 0.01 42 1009.6
20260509193045 83 255 0.0 3.0 0.00 0.55 0.01 44 1009.7
20260509191542 83 264 0.0 4.0 0.00 0.55 0.01 46 1009.7
20260509190040 82 263 0.0 7.0 0.00 0.55 0.01 50 1009.8
20260509184550 82 199 0.0 3.0 0.00 0.55 0.01 50 1009.8
20260509183033 80 228 0.0 8.0 0.00 0.55 0.01 53 1009.9
20260509181533 80 152 1.0 5.0 0.00 0.55 0.01 51 1010.1
20260509180030 80 349 0.0 6.0 0.00 0.55 0.01 53 1010.2